sat.trackr.live / text

‹ back to catalog

BEIDOU-3 M19 (C41)

NORAD 44864 · 2019-090A

PAYLOAD ACTIVE UNKNOWN

§ Identity

Operator
Country
PRC
Launch date
2019-12-16
Launch site
XICLF
Launch vehicle
Mass (kg)
RCS (m²)

Purposes: nav

External: N2YO · Heavens-Above · Gunter

§ Orbital elements

Epoch: 2026-05-22T10:02:16.289376Z

Period
773.23 min
Inclination
56.5381°
Eccentricity
0.0018941
Mean motion
1.86231321 rev/d
Perigee alt
21,475.2 km
Apogee alt
21,580.9 km
Semi-major
27,906.2 km
B*
0.0000e+0
RAAN
63.6419°
Arg perigee
297.3914°
Mean anomaly
239.7429°
Rev number
4,375

§ Raw data

BEIDOU-3 M19 (C41)1 44864U 19090A   26142.41824409 -.00000051  00000+0  00000+0 0  99972 44864  56.5381  63.6419 0018941 297.3914 239.7429  1.86231321 43755

JSON: /api/v1/satellites/44864 · /tle

For live sub-satellite position, see the globe view (requires WebGL).

§ Visibility from observer

Set your observer location to see the next 7 days of passes ≥ 10°. The values pass through the URL so the page stays shareable.

No JS? Fill the form by hand. The geolocation button needs JavaScript.